[ hide orbit diagram ]
For accurate long-term ephemerides, please instead use our Horizons system.This orbit viewer was implemented using two-body methods, and hence should not be used for determining accurate long-term trajectories (over several years or decades) or planetary encounter circumstances.
Orbital Elements at Epoch 2459200.5 (2020-Dec-17.0) TDB
Reference: JPL 16 (heliocentric ecliptic J2000)
Element | Value | Uncertainty (1-sigma) | Units |
e | .06672035323585389 | 8.1412e-08 | |
a | 2.808978269915676 | 7.7653e-08 | au |
q | 2.621562247515064 | 2.6148e-07 | au |
i | 3.36040182229686 | 1.1971e-05 | deg |
node | 341.6741262011997 | 0.00016554 | deg |
peri | 291.8163659785878 | 0.00019159 | deg |
M | 20.73844405173959 | 9.715e-05 | deg |
tp | 2459101.440834564717 (2020-Sep-08.94083456) | 0.00046326 | TDB |
period | 1719.574499790421 4.71 | 7.1305e-05 1.952e-07 | d yr |
n | .2093541164072137 | 8.6813e-09 | deg/d |
Q | 2.996394292316287 | 8.2834e-08 | au |
|
| | Orbit Determination Parameters
Additional Information
|
[ show covariance matrix ]
437134 (2012 UX165) Discovered 2007-Sep-13 by Spacewatch at Kitt Peak |
Reference: | Last Updated: 2015-06-04 |
|
|